sat.trackr.live / text

‹ back to catalog

LEGION 5

NORAD 62900 · 2025-025A

PAYLOAD ACTIVE UNKNOWN

§ Identity

Operator
Country
US
Launch date
2025-02-04
Launch site
AFETR
Launch vehicle
Mass (kg)
RCS (m²)

External: N2YO · Heavens-Above · Gunter

§ Orbital elements

Epoch: 2026-09-22T01:40:56.578656Z

Period
95.01 min
Inclination
45.0005°
Eccentricity
0.0008151
Mean motion
15.15559757 rev/d
Perigee alt
513.7 km
Apogee alt
524.9 km
Semi-major
6,897.4 km
B*
1.4271e-4
RAAN
141.9210°
Arg perigee
296.5554°
Mean anomaly
63.4489°
Rev number
8,919

§ Raw data

LEGION 51 62900U 25025A   26265.07009929  .00002491  00000+0  14271-3 0  99912 62900  45.0005 141.9210 0008151 296.5554  63.4489 15.15559757 89193

JSON: /api/v1/satellites/62900 · /tle

For live sub-satellite position, see the globe view (requires WebGL).

§ Visibility from observer

Set your observer location to see the next 7 days of passes ≥ 10°. The values pass through the URL so the page stays shareable.

No JS? Fill the form by hand. The geolocation button needs JavaScript.